GW0641 Weather Reports


time (UTC)temp
C
wind
direction
speed
KPH
gust
KPH
rain 1hr
cm
rain 24hr
cm
rain mn
cm
humidity
%
barometer
mb
20260503230308 16 278 4.8 12.9 0.00 0.00 0.00 32 1013.7
20260503225824 16 266 4.8 12.9 0.00 0.00 0.00 30 1013.7
20260503225324 16 318 6.4 11.3 0.00 0.00 0.00 29 1013.6
20260503224805 16 311 6.4 11.3 0.00 0.00 0.00 31 1013.7
20260503224306 16 281 3.2 14.5 0.00 0.00 0.00 30 1013.7
20260503223824 16 264 8.0 14.5 0.00 0.00 0.00 30 1013.7
20260503223306 16 314 4.8 14.5 0.00 0.00 0.00 28 1013.7
20260503222809 16 219 4.8 9.7 0.00 0.00 0.00 32 1013.7
20260503222311 16 229 3.2 14.5 0.00 0.00 0.00 31 1013.7
20260503221813 16 230 4.8 14.5 0.00 0.00 0.00 29 1013.8
20260503221315 16 274 4.8 11.3 0.00 0.00 0.00 29 1013.7
20260503220815 16 278 3.2 8.0 0.00 0.00 0.00 30 1013.8
20260503220317 16 297 3.2 11.3 0.00 0.00 0.00 30 1013.7
20260503215815 16 245 6.4 11.3 0.00 0.00 0.00 28 1013.7
20260503215319 16 263 3.2 9.7 0.00 0.00 0.00 28 1013.6
20260503214842 16 303 6.4 11.3 0.00 0.00 0.00 29 1013.7
20260503214343 16 352 6.4 14.5 0.00 0.00 0.00 30 1013.7
20260503213825 16 257 8.0 14.5 0.00 0.00 0.00 28 1013.7
20260503213307 16 202 3.2 16.1 0.00 0.00 0.00 28 1013.7
20260503212808 16 291 3.2 16.1 0.00 0.00 0.00 31 1013.8
20260503212308 16 258 4.8 19.3 0.00 0.00 0.00 29 1013.8
20260503211808 16 276 4.8 9.7 0.00 0.00 0.00 29 1013.8
20260503210817 16 210 4.8 14.5 0.00 0.00 0.00 30 1014.0
20260503210318 16 257 8.0 14.5 0.00 0.00 0.00 31 1013.9
20260503205839 16 287 6.4 16.1 0.00 0.00 0.00 32 1014.0
20260503205320 16 275 6.4 19.3 0.00 0.00 0.00 30 1013.9
20260503204842 15 309 9.7 20.9 0.00 0.00 0.00 30 1014.0
20260503204321 16 290 11.3 20.9 0.00 0.00 0.00 31 1014.1
20260503203825 15 262 4.8 14.5 0.00 0.00 0.00 30 1014.1
20260503203325 15 292 6.4 22.5 0.00 0.00 0.00 29 1014.1
20260503202809 15 224 11.3 22.5 0.00 0.00 0.00 29 1014.1
20260503202331 16 259 8.0 17.7 0.00 0.00 0.00 32 1014.3
20260503201832 15 286 4.8 14.5 0.00 0.00 0.00 30 1014.4
20260503201332 15 90 4.8 14.5 0.00 0.00 0.00 30 1014.4
20260503200814 15 214 4.8 11.3 0.00 0.00 0.00 30 1014.5
20260503200335 15 207 6.4 12.9 0.00 0.00 0.00 30 1014.5
20260503195806 15 114 1.6 12.9 0.00 0.00 0.00 31 1014.6
20260503195307 15 276 6.4 24.1 0.00 0.00 0.00 33 1014.6
20260503194810 15 288 6.4 24.1 0.00 0.00 0.00 33 1014.8
20260503194310 15 114 8.0 16.1 0.00 0.00 0.00 31 1014.7
20260503193812 15 209 4.8 25.7 0.00 0.00 0.00 32 1014.8
20260503193315 15 249 16.1 25.7 0.00 0.00 0.00 30 1015.1
20260503192837 15 123 4.8 19.3 0.00 0.00 0.00 32 1015.1
20260503192318 15 298 3.2 19.3 0.00 0.00 0.00 31 1015.2
20260503191820 15 286 6.4 14.5 0.00 0.00 0.00 35 1015.2
20260503191323 14 278 8.0 17.7 0.00 0.00 0.00 30 1015.2
20260503190825 14 340 9.7 20.9 0.00 0.00 0.00 32 1015.3
20260503190328 15 269 11.3 20.9 0.00 0.00 0.00 33 1015.3
20260503185816 14 250 4.8 12.9 0.00 0.00 0.00 35 1015.3
20260503185317 14 51 8.0 17.7 0.00 0.00 0.00 32 1015.4
20260503184820 13 359 8.0 29.0 0.00 0.00 0.00 33 1015.6
20260503184320 13 267 14.5 29.0 0.00 0.00 0.00 32 1015.7
20260503183823 14 281 9.7 20.9 0.00 0.00 0.00 36 1015.8
20260503183323 14 23 8.0 17.7 0.00 0.00 0.00 34 1016.0
20260503182825 15 280 6.4 22.5 0.00 0.00 0.00 38 1015.9
20260503182307 14 1 12.9 22.5 0.00 0.00 0.00 38 1016.0
20260503181830 13 269 6.4 9.7 0.00 0.00 0.00 33 1015.9
20260503181310 13 249 4.8 17.7 0.00 0.00 0.00 33 1016.0
20260503180811 13 248 6.4 24.1 0.00 0.00 0.00 40 1016.0
20260503180314 13 221 12.9 24.1 0.00 0.00 0.00 36 1016.0
20260503175832 13 295 8.0 20.9 0.00 0.00 0.00 37 1016.0
20260503175312 13 229 8.0 17.7 0.00 0.00 0.00 33 1016.1
20260503174812 13 271 8.0 17.7 0.00 0.00 0.00 37 1016.0
20260503174315 13 25 3.2 25.7 0.00 0.00 0.00 37 1016.1
20260503173817 13 269 12.9 25.7 0.00 0.00 0.00 36 1016.2
20260503173320 12 295 6.4 20.9 0.00 0.00 0.00 37 1016.1
20260503172821 13 254 12.9 20.9 0.00 0.00 0.00 35 1016.1
20260503172322 12 258 6.4 17.7 0.00 0.00 0.00 38 1016.1
20260503171824 12 279 8.0 17.7 0.00 0.00 0.00 40 1016.2
20260503171326 12 293 4.8 16.1 0.00 0.00 0.00 41 1016.2
20260503170809 12 272 9.7 22.5 0.00 0.00 0.00 39 1016.3
20260503170313 12 257 9.7 16.1 0.00 0.00 0.00 39 1016.4
20260503150824 10 288 6.4 12.9 0.00 0.00 0.00 47 1017.7
20260503150325 9 219 1.6 17.7 0.00 0.00 0.00 46 1017.7
20260503140315 7 255 11.3 20.9 0.00 0.00 0.00 49 1017.8
20260503131313 6 295 4.8 20.9 0.00 0.00 0.00 53 1017.7
20260503130814 6 332 3.2 20.9 0.00 0.00 0.00 54 1017.6
20260503130316 6 272 6.4 14.5 0.00 0.00 0.00 56 1017.7
20260503110322 0 337 0.0 4.8 0.00 0.00 0.00 86 1016.9
20260503090310 1 288 1.6 4.8 0.00 0.00 0.00 78 1015.1
20260503081339 0 156 0.0 0.0 0.00 0.00 0.00 85 1014.8
20260503080841 0 125 0.0 0.0 0.00 0.00 0.00 86 1014.7
20260503080321 1 78 0.0 0.0 0.00 0.00 0.00 86 1014.6
20260503072822 1 335 3.2 4.8 0.00 0.00 0.00 86 1014.5
20260503072323 1 349 1.6 4.8 0.00 0.00 0.00 85 1014.4
20260503071827 1 110 0.0 3.2 0.00 0.00 0.00 84 1014.3
20260503071328 2 81 0.0 3.2 0.00 0.00 0.00 83 1014.3
20260503070850 2 37 1.6 4.8 0.00 0.00 0.00 81 1014.2
20260503070329 2 307 1.6 17.7 0.00 0.00 0.00 79 1014.1
20260503054826 1 3 0.0 3.2 0.00 0.00 0.00 88 1014.3
20260503054327 1 352 0.0 1.6 0.00 0.00 0.00 87 1014.3
20260503053830 1 291 0.0 1.6 0.00 0.00 0.00 87 1014.3
20260503053311 1 153 1.6 3.2 0.00 0.00 0.00 87 1014.3
20260503052813 1 39 1.6 4.8 0.00 0.00 0.00 86 1014.4
20260503052317 1 41 4.8 4.8 0.00 0.00 0.00 85 1014.4
20260503051839 1 212 0.0 3.2 0.00 0.00 0.00 84 1014.4
20260503051320 1 155 0.0 4.8 0.00 0.00 0.00 84 1014.4
20260503050824 1 268 1.6 4.8 0.00 0.00 0.00 84 1014.4
20260503050325 1 246 0.0 4.8 0.00 0.00 0.00 85 1014.3
20260503045844 1 283 1.6 8.0 0.00 0.00 0.00 85 1014.3
20260503045326 1 262 4.8 8.0 0.00 0.00 0.00 87 1014.3
20260503044827 1 249 0.0 4.8 0.00 0.00 0.00 86 1014.3
20260503044328 1 296 1.6 4.8 0.00 0.00 0.00 86 1014.3
20260503043829 1 231 0.0 0.0 0.00 0.00 0.00 85 1014.3
20260503043311 1 309 0.0 6.4 0.00 0.00 0.00 85 1014.3
20260503042815 1 309 3.2 6.4 0.00 0.00 0.00 84 1014.3
20260503042315 1 103 0.0 1.6 0.00 0.00 0.00 84 1014.1
20260503041818 2 100 0.0 1.6 0.00 0.00 0.00 82 1014.2
20260503041318 2 128 0.0 1.6 0.00 0.00 0.00 80 1014.2
20260503040841 2 128 0.0 3.2 0.00 0.00 0.00 80 1014.2
20260503040323 2 298 0.0 3.2 0.00 0.00 0.00 80 1014.2
20260503035835 2 110 0.0 4.8 0.00 0.00 0.00 79 1014.1
20260503035317 2 281 1.6 6.4 0.00 0.00 0.00 78 1014.1
20260503034839 2 248 3.2 6.4 0.00 0.00 0.00 79 1014.3
20260503034319 2 256 3.2 6.4 0.00 0.00 0.00 77 1014.2
20260503033822 2 297 1.6 8.0 0.00 0.00 0.00 78 1014.3
20260503033324 2 297 4.8 8.0 0.00 0.00 0.00 78 1014.2
20260503032846 2 264 4.8 6.4 0.00 0.00 0.00 78 1014.3
20260503032348 2 252 1.6 6.4 0.00 0.00 0.00 77 1014.2
20260503031828 2 258 3.2 4.8 0.00 0.00 0.00 78 1014.1
20260503031329 3 285 1.6 6.4 0.00 0.00 0.00 77 1014.0
20260503030830 3 244 3.2 6.4 0.00 0.00 0.00 77 1014.0
20260503030331 3 302 3.2 4.8 0.00 0.00 0.00 75 1014.0
20260503025829 3 250 1.6 4.8 0.00 0.00 0.00 75 1014.0
20260503025330 3 277 3.2 6.4 0.00 0.00 0.00 74 1014.0
20260503024811 3 269 3.2 6.4 0.00 0.00 0.00 73 1014.0
20260503024315 3 269 3.2 6.4 0.00 0.00 0.00 72 1014.0
20260503023816 4 233 3.2 6.4 0.00 0.00 0.00 71 1014.1
20260503023318 4 265 3.2 6.4 0.00 0.00 0.00 72 1014.1
20260503022820 4 251 1.6 4.8 0.00 0.00 0.00 72 1014.2
20260503022322 4 270 3.2 8.0 0.00 0.00 0.00 71 1014.1
20260503021824 4 270 3.2 8.0 0.00 0.00 0.00 69 1014.0
20260503021325 4 264 3.2 6.4 0.00 0.00 0.00 71 1014.0
20260503020827 4 250 3.2 4.8 0.00 0.00 0.00 69 1014.0
20260503020328 5 277 1.6 4.8 0.00 0.00 0.00 68 1013.9
20260503015829 5 290 3.2 4.8 0.00 0.00 0.00 67 1013.8
20260503015330 5 297 3.2 6.4 0.00 0.00 0.00 68 1013.8
20260503014830 6 295 1.6 6.4 0.00 0.00 0.00 64 1013.8
20260503014313 6 295 3.2 12.9 0.00 0.00 0.00 60 1013.8
20260503013813 6 285 3.2 12.9 0.00 0.00 0.00 60 1013.7
20260503013315 6 271 4.8 6.4 0.00 0.00 0.00 59 1013.7
20260503012817 6 293 4.8 6.4 0.00 0.00 0.00 58 1013.7
20260503012322 6 281 3.2 8.0 0.00 0.00 0.00 58 1013.6
20260503011821 6 274 4.8 8.0 0.00 0.00 0.00 58 1013.7
20260503011322 6 267 3.2 6.4 0.00 0.00 0.00 59 1013.7
20260503010844 7 251 1.6 4.8 0.00 0.00 0.00 58 1013.5
20260503010345 7 273 1.6 6.4 0.00 0.00 0.00 57 1013.5
20260503005804 7 285 3.2 11.3 0.00 0.00 0.00 56 1013.4
20260503005327 7 267 3.2 11.3 0.00 0.00 0.00 54 1013.3
20260503004809 7 278 3.2 9.7 0.00 0.00 0.00 54 1013.2
20260503004312 7 283 3.2 9.7 0.00 0.00 0.00 54 1013.2
20260503003814 8 290 1.6 8.0 0.00 0.00 0.00 53 1013.1
20260503003337 8 269 3.2 8.0 0.00 0.00 0.00 51 1013.0
20260503002818 8 260 1.6 8.0 0.00 0.00 0.00 50 1013.0
20260503002321 8 276 4.8 8.0 0.00 0.00 0.00 50 1012.9
20260503001823 8 291 1.6 6.4 0.00 0.00 0.00 49 1012.9
20260503001323 8 281 1.6 11.3 0.00 0.00 0.00 49 1012.8
20260503000806 9 299 4.8 11.3 0.00 0.00 0.00 48 1012.7
20260503000307 9 262 1.6 8.0 0.00 0.00 0.00 48 1012.6
20260502235825 9 271 1.6 8.0 0.00 0.00 0.00 47 1012.6
20260502235327 9 261 3.2 4.8 0.00 0.00 0.00 47 1012.6
20260502234808 9 281 1.6 9.7 0.00 0.00 0.00 49 1012.5
20260502234309 9 253 3.2 9.7 0.00 0.00 0.00 47 1012.4
20260502233832 10 300 3.2 6.4 0.00 0.00 0.00 49 1012.4
20260502233313 10 295 3.2 8.0 0.00 0.00 0.00 49 1012.3
20260502232835 10 293 3.2 8.0 0.00 0.00 0.00 49 1012.3
20260502232333 10 286 3.2 14.5 0.00 0.00 0.00 48 1012.2
20260502231817 10 300 6.4 14.5 0.00 0.00 0.00 47 1012.1
20260502231338 10 270 4.8 19.3 0.00 0.00 0.00 46 1012.1
20260502230820 11 283 9.7 19.3 0.00 0.00 0.00 45 1012.1
20260502230323 11 293 8.0 12.9 0.00 0.00 0.00 44 1012.1